This demonstration page uses our WeatherBlox Daily Observations layout. Learn more.

Left ArrowRight Arrow

Hourly Observations for June 7, 2017

Temp ( °F °C ) Dew Point ( °F °C ) Humidity (%) Winds ( mph kmh ) Pressure ( in mb ) Visibility ( mi km ) Precip ( " mm )
12:15 am 00:15 Cloudy 67 19.3 62 16.4 83 83 Calm 30.06 1018 10 16.0934 0 0
12:35 am 00:35 Cloudy 67 19.6 62 16.5 82 82 Calm 30.06 1018 10 16.0934 0 0
12:55 am 00:55 Cloudy 67 19.2 61 16.3 83 83 Calm 30.06 1018 10 16.0934 0 0
1:15 am 01:15 Cloudy 65 18.5 62 16.5 88 88 Calm 30.06 1018 10 16.0934 0 0
1:35 am 01:35 Cloudy 65 18.6 61 16.3 87 87 Calm 30.06 1018 10 16.0934 0 0
1:55 am 01:55 Cloudy 65 18.6 61 16.2 86 86 N 5 7 30.06 1018 10 16.0934 0 0
2:15 am 02:15 Mostly Cloudy 64 17.8 61 16.1 90 90 NNE 3 6 30.03 1017 10 16.0934 0 0
2:35 am 02:35 Partly Cloudy 64 17.7 61 16.1 90 90 NNE 5 7 30.03 1017 10 16.0934 0 0
2:55 am 02:55 Mostly Cloudy 63 17.3 61 16 92 92 NE 5 7 30.06 1018 7 11.26538 0 0
3:15 am 03:15 Partly Cloudy 64 17.7 61 16.3 92 92 Calm 30.06 1018 7 11.26538 0 0
3:35 am 03:35 Partly Cloudy with Mist and Fog 62 16.6 60 15.4 93 93 Calm 30.09 1019 5 8.0467 0 0
3:55 am 03:55 Cloudy with Mist and Fog 62 16.9 61 15.9 94 94 Calm 30.09 1019 5 8.0467 0 0
4:15 am 04:15 Cloudy with Mist and Fog 63 17.2 61 16 93 93 Calm 30.06 1018 5 8.0467 0 0
4:35 am 04:35 Cloudy 63 17.2 61 16 93 93 Calm 30.06 1018 7 11.26538 0 0
4:55 am 04:55 Cloudy 64 17.5 61 16.1 92 92 NNE 3 6 30.06 1018 7 11.26538 0 0
5:15 am 05:15 Mostly Cloudy 63 17.2 61 16 93 93 Calm 30.06 1018 7 11.26538 0 0
5:35 am 05:35 Mostly Cloudy 63 17.3 61 16.2 93 93 Calm 30.06 1018 7 11.26538 0 0
5:55 am 05:55 Mostly Cloudy 64 17.6 61 16.2 92 92 Calm 30.06 1018 7 11.26538 0 0
6:15 am 06:15 Mostly Cloudy 63 17.2 60 15.7 91 91 Calm 30.06 1018 7 11.26538 0 0
6:35 am 06:35 Partly Cloudy with Mist and Fog 62 16.7 60 15.6 93 93 Calm 30.09 1019 4 6.43736 0 0
6:55 am 06:55 Sunny with Mist and Fog 62 16.5 60 15.6 94 94 Calm 30.09 1019 3 4.82802 0 0
7:15 am 07:15 Partly Cloudy with Mist and Fog 63 17 61 16.1 94 94 Calm 30.09 1019 3 4.82802 0 0
7:35 am 07:35 Mostly Cloudy with Mist and Fog 65 18.1 63 17.2 95 95 Calm 30.06 1018 4 6.43736 0 0
7:55 am 07:55 Mostly Cloudy 67 19.2 63 17.1 88 88 ESE 3 6 30.06 1018 7 11.26538 0 0
8:15 am 08:15 Cloudy 67 19.4 62 16.9 86 86 SSE 6 9 30.06 1018 10 16.0934 0 0
8:35 am 08:35 Cloudy 67 19.5 62 16.9 85 85 S 6 9 30.06 1018 10 16.0934 0 0
8:55 am 08:55 Cloudy 68 20.1 62 16.8 81 81 SSW 6 9 30.06 1018 10 16.0934 0 0
9:15 am 09:15 Mostly Cloudy 68 20.2 62 16.6 80 80 S 5 7 30.06 1018 10 16.0934 0 0
9:35 am 09:35 Cloudy 69 20.8 62 16.6 77 77 S 5 7 30.03 1017 10 16.0934 0 0
9:55 am 09:55 Cloudy 71 21.5 61 16.3 72 72 SSW 6 9 30.03 1017 10 16.0934 0 0
10:15 am 10:15 Mostly Cloudy 72 22 61 16.1 69 69 S 5 7 30.03 1017 10 16.0934 0 0
10:35 am 10:35 Partly Cloudy 74 23.2 60 15.5 62 62 SSW 8 13 30.03 1017 10 16.0934 0 0
10:55 am 10:55 Sunny 74 23.5 59 15 59 59 SSE 6 9 30.03 1017 10 16.0934 0 0
11:15 am 11:15 Partly Cloudy 76 24.3 58 14.7 55 55 SSW 8 13 30.03 1017 10 16.0934 0 0
11:35 am 11:35 Mostly Cloudy 77 25 57 14.1 51 51 SSE 7 11 30 1016 10 16.0934 0 0
11:55 am 11:55 Partly Cloudy 77 24.9 57 13.8 50 50 SSW 9 15 30 1016 10 16.0934 0 0
12:15 pm 12:15 Partly Cloudy 78 25.8 57 13.8 48 48 S 13 20 30 1016 10 16.0934 0 0
12:35 pm 12:35 Partly Cloudy 77 25.2 56 13.1 47 47 SSE 7 11 30 1016 10 16.0934 0 0
12:55 pm 12:55 Mostly Cloudy 79 26.1 54 12.2 42 42 SSE 12 19 30 1016 10 16.0934 0 0
1:15 pm 13:15 Cloudy 78 25.6 54 12.3 44 44 SSE 10 17 29.97 1015 10 16.0934 0 0
1:35 pm 13:35 Mostly Cloudy 80 26.4 53 11.9 41 41 S 9 15 29.97 1015 10 16.0934 0 0
1:55 pm 13:55 Mostly Cloudy 80 26.6 53 11.9 40 40 SE 5 7 29.97 1015 10 16.0934 0 0
2:15 pm 14:15 Mostly Cloudy 79 26.2 53 11.7 40 40 SSE 15 24 29.97 1015 10 16.0934 0 0
2:35 pm 14:35 Mostly Cloudy 80 26.6 53 11.6 39 39 SSE 7 11 29.97 1015 10 16.0934 0 0
2:55 pm 14:55 Mostly Cloudy 79 25.9 52 11 39 39 SSE 7 11 29.97 1015 10 16.0934 0 0
3:15 pm 15:15 Cloudy 81 27.4 53 11.6 37 37 S 8 13 29.97 1015 10 16.0934 0 0
3:35 pm 15:35 Mostly Cloudy 79 26 51 10.6 38 38 SSE 8 13 29.97 1015 10 16.0934 0 0
3:55 pm 15:55 Cloudy 80 26.6 52 10.9 37 37 SE 10 17 29.97 1015 10 16.0934 0 0
4:15 pm 16:15 Partly Cloudy 81 27.3 51 10.7 35 35 SSE 12 19 29.94 1014 10 16.0934 0 0
4:35 pm 16:35 Partly Cloudy 82 27.6 51 10.8 35 35 SSE 13 20 29.91 1013 10 16.0934 0 0
4:55 pm 16:55 Partly Cloudy 81 27.2 51 10.7 36 36 SE 13 20 29.94 1014 10 16.0934 0 0
5:15 pm 17:15 Partly Cloudy 81 27.4 51 10.8 35 35 SSE 14 22 29.91 1013 10 16.0934 0 0
5:35 pm 17:35 Partly Cloudy 81 27.4 51 10.5 35 35 SSE 10 17 29.91 1013 10 16.0934 0 0
5:55 pm 17:55 Sunny 80 26.8 51 10.6 36 36 S 12 19 29.94 1014 10 16.0934 0 0
6:15 pm 18:15 Sunny 79 26.2 52 11 39 39 SE 9 15 29.91 1013 10 16.0934 0 0
6:35 pm 18:35 Sunny 79 26.1 52 11 39 39 SE 10 17 29.91 1013 10 16.0934 0 0
6:55 pm 18:55 Sunny 79 26 51 10.5 38 38 SE 10 17 29.91 1013 10 16.0934 0 0
7:15 pm 19:15 Sunny 79 26 50 10.1 37 37 SE 13 20 29.91 1013 10 16.0934 0 0
7:35 pm 19:35 Sunny 78 25.3 51 10.6 40 40 SSE 10 17 29.91 1013 10 16.0934 0 0
7:55 pm 19:55 Sunny 77 25 51 10.5 40 40 SSE 14 22 29.91 1013 10 16.0934 0 0
8:15 pm 20:15 Sunny 76 24.4 51 10.8 42 42 SE 10 17 29.91 1013 10 16.0934 0 0
8:35 pm 20:35 Sunny 74 23.5 52 11.2 46 46 SE 10 17 29.91 1013 10 16.0934 0 0
8:55 pm 20:55 Sunny 73 23 49 9.6 43 43 SE 10 17 29.94 1014 10 16.0934 0 0
9:15 pm 21:15 Clear 73 22.5 49 9.6 44 44 SSE 9 15 29.94 1014 10 16.0934 0 0
9:35 pm 21:35 Clear 71 21.7 50 9.9 47 47 SSE 8 13 29.97 1015 10 16.0934 0 0
9:55 pm 21:55 Clear 70 21.3 50 10.2 49 49 SSE 7 11 29.97 1015 10 16.0934 0 0
10:15 pm 22:15 Clear 70 21 50 10 50 50 SSE 8 13 29.97 1015 10 16.0934 0 0
10:35 pm 22:35 Clear 69 20.7 50 10.1 51 51 SSE 8 13 29.97 1015 10 16.0934 0 0
10:55 pm 22:55 Clear 68 20.2 51 10.3 53 53 SSE 8 13 29.97 1015 10 16.0934 0 0
11:15 pm 23:15 Clear 68 20.1 51 10.3 53 53 SSE 8 13 29.97 1015 10 16.0934 0 0
11:35 pm 23:35 Clear 68 20.1 50 10.2 53 53 SSE 8 13 29.97 1015 10 16.0934 0 0
11:55 pm 23:55 Clear 67 19.7 50 10.2 54 54 SSE 8 13 30 1016 10 16.0934 0 0

Powered by AerisWeather